This is the latest recevied weather packets stored in our database for station/object DB0KE-10. If no packets are shown the sender has not sent any weather packets the latest 10 day(s).
| Time | Temp. | Humidity | Pressure | Rain* | Wind** | Luminosity | Snow |
|---|---|---|---|---|---|---|---|
| 1787797335 | 25° C | 45% | 1021.8 hPa | - | - | - | - |
| 1787796435 | 25.56° C | 45% | 1021.7 hPa | - | - | - | - |
| 1787795535 | 25.56° C | 45% | 1021.8 hPa | - | - | - | - |
| 1787794634 | 25.56° C | 46% | 1021.7 hPa | - | - | - | - |
| 1787793734 | 26.11° C | 46% | 1021.9 hPa | - | - | - | - |
| 1787792834 | 26.11° C | 45% | 1021.9 hPa | - | - | - | - |
| 1787791934 | 26.11° C | 46% | 1021.8 hPa | - | - | - | - |
| 1787791034 | 26.11° C | 45% | 1021.9 hPa | - | - | - | - |
| 1787790134 | 26.67° C | 45% | 1022 hPa | - | - | - | - |
| 1787789234 | 26.67° C | 45% | 1022.2 hPa | - | - | - | - |
| 1787788334 | 26.67° C | 45% | 1022.2 hPa | - | - | - | - |
| 1787787434 | 26.67° C | 45% | 1022.3 hPa | - | - | - | - |
| 1787786534 | 26.67° C | 44% | 1022.2 hPa | - | - | - | - |
| 1787785634 | 26.67° C | 44% | 1022.2 hPa | - | - | - | - |
| 1787784733 | 26.67° C | 44% | 1022.2 hPa | - | - | - | - |
| 1787783833 | 26.67° C | 44% | 1022.2 hPa | - | - | - | - |
| 1787782933 | 27.22° C | 43% | 1022.2 hPa | - | - | - | - |
| 1787782033 | 27.22° C | 43% | 1022.3 hPa | - | - | - | - |
| 1787781133 | 27.78° C | 42% | 1022.4 hPa | - | - | - | - |
| 1787780233 | 27.78° C | 42% | 1022.4 hPa | - | - | - | - |
| 1787779336 | 27.78° C | 42% | 1022.4 hPa | - | - | - | - |
| 1787778436 | 27.78° C | 42% | 1022.5 hPa | - | - | - | - |
| 1787777536 | 27.78° C | 42% | 1022.3 hPa | - | - | - | - |
| 1787776635 | 27.78° C | 42% | 1022.4 hPa | - | - | - | - |
| 1787775735 | 27.22° C | 42% | 1022.5 hPa | - | - | - | - |
* Rain since midnight (hover to see other rain measurements)
** Current wind speed in m/s (hover to see current wind gust speed)